Weather History for Henderson, KY

Change the Weather History Date:

Thursday, February 21, 2013

  Actual Average Record
Temperature  
Mean Temperature 28 °F -  
Max Temperature 33 °F 53 °F 70 °F (1935)
Min Temperature 23 °F 32 °F 3 °F (1963)
Degree Days  
Heating Degree Days 37    
Moisture  
Dew Point 16 °F    
Average Humidity 57    
Maximum Humidity 70    
Minimum Humidity 47    
Precipitation  
Precipitation 0.66 in - - ()
Sea Level Pressure  
Sea Level Pressure 30.12 in    
Wind  
Wind Speed 11 mph (ENE)    
Max Wind Speed 25 mph    
Max Gust Speed 32 mph    
Visibility 10 miles    
Events      
Averages and records for this station are not official NWS values.
T = Trace of Precipitation, MM = Missing Value Source: NWS Daily Summary

Daily Weather History Graph

Daily Weather History Graph

Search for Another Location

Airport:

Trip Planner

Search our weather history database for the weather conditions in past years. The results will help you decide how hot, cold, wet, or windy it might be!

Date:

Astronomy

Feb. 21, 2013 Rise Set
Actual Time 6:32 AM CST 5:36 PM CST
Civil Twilight 6:06 AM CST 6:03 PM CST
Nautical Twilight 5:35 AM CST 6:33 PM CST
Astronomical Twilight 5:05 AM CST 7:04 PM CST
Moon 1:53 PM CST (2/21) 3:34 AM CST (2/21)
Length of Visible Light 11h 56m
Length of Day
11h 03m
Waxing Gibbous, 84% of the Moon is Illuminated
Feb 21
Waxing Gibbous
Feb 25
Full
Mar 4
Last Quarter
Mar 11
New
Mar 19
First Quarter

Hourly Weather History & Observations

Time (CST) Temp. Windchill Dew Point Humidity Pressure Visibility Wind Dir Wind Speed Gust Speed Precip Events Conditions
12:15 AM 24.8 °F 16.1 °F 8.6 °F 50% 30.32 in 10.0 mi NE 8.1 mph - N/A   Clear
12:35 AM 24.8 °F 16.1 °F 8.6 °F 50% 30.30 in 10.0 mi NE 8.1 mph - N/A   Clear
12:55 AM 24.8 °F 16.1 °F 8.6 °F 50% 30.30 in 10.0 mi NE 8.1 mph - N/A   Clear
1:15 AM 24.8 °F 16.1 °F 10.4 °F 54% 30.31 in 10.0 mi NE 8.1 mph - N/A   Clear
1:55 AM 24.8 °F 15.3 °F 8.6 °F 50% 30.29 in 10.0 mi NE 9.2 mph - N/A   Clear
2:15 AM 24.8 °F 15.3 °F 8.6 °F 50% 30.30 in 10.0 mi NE 9.2 mph - N/A   Clear
2:35 AM 24.8 °F 13.4 °F 8.6 °F 50% 30.28 in 10.0 mi NE 12.7 mph - N/A   Clear
2:55 AM 24.8 °F 14.0 °F 8.6 °F 50% 30.29 in 10.0 mi NE 11.5 mph - N/A   Clear
3:15 AM 23.0 °F 13.9 °F 8.6 °F 54% 30.30 in 10.0 mi NE 8.1 mph - N/A   Clear
3:35 AM 23.0 °F 13.1 °F 8.6 °F 54% 30.28 in 10.0 mi NE 9.2 mph - N/A   Clear
4:15 AM 24.8 °F 16.1 °F 8.6 °F 50% 30.29 in 10.0 mi ENE 8.1 mph - N/A   Clear
4:35 AM 24.8 °F 14.6 °F 8.6 °F 50% 30.30 in 10.0 mi East 10.4 mph - N/A   Clear
4:55 AM 24.8 °F 14.6 °F 8.6 °F 50% 30.30 in 10.0 mi ENE 10.4 mph - N/A   Clear
5:15 AM 24.8 °F 12.9 °F 8.6 °F 50% 30.29 in 10.0 mi ENE 13.8 mph - N/A   Clear
5:55 AM 24.8 °F 14.0 °F 8.6 °F 50% 30.30 in 10.0 mi East 11.5 mph 18.4 mph N/A   Clear
6:15 AM 23.0 °F 12.4 °F 8.6 °F 54% 30.29 in 10.0 mi East 10.4 mph - N/A   Clear
6:35 AM 23.0 °F 11.1 °F 8.6 °F 54% 30.28 in 10.0 mi East 12.7 mph 16.1 mph N/A   Clear
6:55 AM 23.0 °F 9.6 °F 8.6 °F 54% 30.26 in 10.0 mi East 16.1 mph - N/A   Clear
7:15 AM 24.8 °F 15.3 °F 10.4 °F 54% 30.27 in 10.0 mi East 9.2 mph - N/A   Clear
7:35 AM 24.8 °F 12.9 °F 10.4 °F 54% 30.27 in 10.0 mi East 13.8 mph - N/A   Clear
8:35 AM 26.6 °F 16.2 °F 10.4 °F 51% 30.26 in 10.0 mi East 11.5 mph 18.4 mph N/A   Clear
8:55 AM 26.6 °F 14.7 °F 12.2 °F 55% 30.25 in 10.0 mi East 15.0 mph - N/A   Clear
9:35 AM 28.4 °F 18.5 °F 12.2 °F 51% 30.28 in 10.0 mi East 11.5 mph - N/A   Mostly Cloudy
9:55 AM 28.4 °F 16.6 °F 12.2 °F 51% 30.24 in 10.0 mi East 16.1 mph - N/A   Overcast
10:15 AM 30.2 °F 20.8 °F 14.0 °F 51% 30.24 in 10.0 mi East 11.5 mph - N/A   Overcast
10:35 AM 30.2 °F 19.8 °F 12.2 °F 47% 30.20 in 10.0 mi ENE 13.8 mph - N/A   Overcast
10:55 AM 30.2 °F 19.8 °F 14.0 °F 51% 30.19 in 10.0 mi East 13.8 mph - N/A   Overcast
11:15 AM 30.2 °F 20.2 °F 14.0 °F 51% 30.21 in 10.0 mi ENE 12.7 mph - N/A   Overcast
11:35 AM 30.2 °F 21.3 °F 14.0 °F 51% 30.22 in 10.0 mi NE 10.4 mph - N/A   Overcast
11:55 AM 30.2 °F 18.1 °F 14.0 °F 51% 30.14 in 10.0 mi East 18.4 mph - N/A   Overcast
12:15 PM 30.2 °F 18.1 °F 15.8 °F 55% 30.11 in 10.0 mi East 18.4 mph 21.9 mph N/A   Overcast
12:55 PM 30.2 °F 18.9 °F 17.6 °F 60% 30.05 in 10.0 mi East 16.1 mph - N/A   Overcast
1:15 PM 30.2 °F 18.9 °F 17.6 °F 60% 30.02 in 10.0 mi East 16.1 mph - N/A   Mostly Cloudy
1:35 PM 30.2 °F 20.2 °F 17.6 °F 60% 30.04 in 10.0 mi East 12.7 mph 19.6 mph N/A   Mostly Cloudy
1:55 PM 32.0 °F 21.2 °F 17.6 °F 55% 30.00 in 10.0 mi East 16.1 mph - N/A   Overcast
2:15 PM 32.0 °F 23.0 °F 17.6 °F 55% 30.01 in 10.0 mi East 11.5 mph - N/A   Overcast
2:35 PM 32.0 °F 24.8 °F 17.6 °F 55% 30.08 in 10.0 mi NE 8.1 mph - 0.01 in   Overcast
2:55 PM 32.0 °F 24.2 °F 17.6 °F 55% 30.10 in 10.0 mi NNE 9.2 mph - 0.03 in   Overcast
3:15 PM 32.0 °F 24.2 °F 19.4 °F 60% 30.11 in 10.0 mi NNE 9.2 mph - 0.01 in   Overcast
3:35 PM 32.0 °F 23.6 °F 19.4 °F 60% 30.12 in 10.0 mi NNE 10.4 mph - 0.03 in   Overcast
3:55 PM 30.2 °F 21.3 °F 19.4 °F 64% 30.12 in 10.0 mi NE 10.4 mph - 0.03 in   Overcast
4:15 PM 30.2 °F 18.5 °F 19.4 °F 64% 30.08 in 10.0 mi NE 17.3 mph - 0.01 in   Overcast
4:35 PM 30.2 °F 18.9 °F 19.4 °F 64% 30.07 in 10.0 mi ENE 16.1 mph - 0.02 in   Overcast
4:55 PM 32.0 °F 20.8 °F 19.4 °F 60% 30.07 in 9.0 mi ENE 17.3 mph 23.0 mph 0.05 in   Overcast
5:15 PM 32.0 °F 20.5 °F 21.2 °F 64% 30.06 in 8.0 mi East 18.4 mph 24.2 mph 0.04 in   Overcast
5:35 PM 32.0 °F 18.6 °F 19.4 °F 60% 29.98 in 7.0 mi East 25.3 mph - 0.09 in   Overcast
5:55 PM 32.0 °F 21.2 °F 21.2 °F 64% 29.97 in 10.0 mi East 16.1 mph 25.3 mph 0.13 in   Overcast
6:15 PM 32.0 °F 19.5 °F 21.2 °F 64% 29.94 in 10.0 mi East 21.9 mph 32.2 mph 0.02 in   Overcast
6:35 PM 32.0 °F 21.2 °F 21.2 °F 64% 29.93 in 10.0 mi East 16.1 mph 26.5 mph 0.05 in   Overcast
6:55 PM 32.0 °F 21.2 °F 21.2 °F 64% 29.92 in 10.0 mi East 16.1 mph 26.5 mph 0.05 in   Overcast
7:15 PM 32.0 °F 22.5 °F 21.2 °F 64% 29.90 in 9.0 mi East 12.7 mph 23.0 mph 0.05 in   Mostly Cloudy
7:35 PM 32.0 °F 22.5 °F 21.2 °F 64% 29.92 in 10.0 mi ESE 12.7 mph - 0.07 in   Overcast
7:55 PM 33.8 °F 27.7 °F 21.2 °F 60% 29.96 in 10.0 mi ESE 6.9 mph - 0.09 in   Overcast
8:15 PM 33.8 °F 25.8 °F 21.2 °F 60% 29.94 in 8.0 mi ESE 10.4 mph 16.1 mph 0.05 in   Overcast
8:35 PM 33.8 °F 25.8 °F 23.0 °F 65% 29.93 in 10.0 mi ESE 10.4 mph - 0.06 in   Overcast
8:55 PM 33.8 °F 28.6 °F 23.0 °F 65% 29.95 in 4.0 mi East 5.8 mph - 0.18 in   Mostly Cloudy
9:15 PM 33.8 °F 26.4 °F 23.0 °F 65% 29.94 in 7.0 mi East 9.2 mph - 0.06 in   Overcast
9:35 PM 33.8 °F 27.0 °F 23.0 °F 65% 29.92 in 10.0 mi East 8.1 mph - 0.07 in   Overcast
9:55 PM 33.8 °F 27.0 °F 23.0 °F 65% 29.91 in 10.0 mi ESE 8.1 mph - 0.07 in   Mostly Cloudy
10:16 PM 33.8 °F 27.0 °F 24.8 °F 70% 29.90 in 9.0 mi ESE 8.1 mph - 0.02 in   Overcast
10:35 PM 33.8 °F 26.4 °F 24.8 °F 70% 29.88 in 10.0 mi ESE 9.2 mph - 0.03 in   Overcast
10:55 PM 33.8 °F 24.8 °F 24.8 °F 70% 29.86 in 10.0 mi ESE 12.7 mph 17.3 mph 0.03 in   Mostly Cloudy
11:15 PM 33.8 °F 24.8 °F 24.8 °F 70% 29.86 in 10.0 mi ESE 12.7 mph 16.1 mph N/A   Overcast
11:35 PM 33.8 °F 24.8 °F 24.8 °F 70% 29.85 in 10.0 mi ESE 12.7 mph 17.3 mph N/A   Overcast